EW9837 Weather Reports


Display with metric or nautical units.
time (UTC)temp
F
wind
direction
speed
MPH
gust
MPH
rain 1hr
in
rain 24hr
in
rain mn
in
humidity
%
barometer
mb
20260504081531 48 157 3.0 4.0 0.00 0.00 0.00 85 1012.8
20260504080107 48 157 4.0 4.0 0.00 0.00 0.00 84 1012.9
20260504070109 51 184 0.0 0.0 0.00 0.00 0.00 79 1012.8
20260504044536 59 171 1.0 4.0 0.00 0.00 0.00 60 1012.6
20260504043034 61 157 0.0 0.0 0.00 0.00 0.00 54 1012.5
20260504041535 63 162 1.0 6.0 0.00 0.00 0.00 51 1012.3
20260504040043 64 176 4.0 6.0 0.00 0.00 0.00 50 1012.1
20260504034536 65 176 4.0 7.0 0.00 0.00 0.00 49 1012.0
20260504033034 66 181 4.0 7.0 0.00 0.00 0.00 49 1011.9
20260504031535 66 172 4.0 7.0 0.00 0.00 0.00 50 1011.7
20260504030035 69 196 2.0 5.0 0.00 0.00 0.00 51 1011.6
20260504024607 74 215 1.0 4.0 0.00 0.00 0.00 41 1011.6
20260504023109 77 276 0.0 2.0 0.00 0.00 0.00 35 1011.6
20260504021536 78 316 1.0 4.0 0.00 0.00 0.00 33 1011.7
20260504014534 80 346 2.0 5.0 0.00 0.00 0.00 28 1011.9
20260504013034 80 318 2.0 5.0 0.00 0.00 0.00 27 1012.1
20260504011537 81 340 3.0 6.0 0.00 0.00 0.00 27 1012.2
20260504010034 82 19 4.0 7.0 0.00 0.00 0.00 27 1012.4
20260504004610 82 19 4.0 6.0 0.00 0.00 0.00 27 1012.5
20260504003037 82 328 2.0 5.0 0.00 0.00 0.00 27 1012.6
20260504001531 82 359 4.0 8.0 0.00 0.00 0.00 28 1012.7
20260503234535 82 16 5.0 11.0 0.00 0.00 0.00 27 1012.8
20260503233036 82 24 5.0 12.0 0.00 0.00 0.00 27 1013.0
20260503231535 82 20 7.0 14.0 0.00 0.00 0.00 28 1013.2
20260503230106 83 21 5.0 10.0 0.00 0.00 0.00 28 1013.5
20260503224536 83 15 6.0 12.0 0.00 0.00 0.00 29 1013.7
20260503223037 83 36 5.0 14.0 0.00 0.00 0.00 29 1013.9
20260503221608 82 15 6.0 13.0 0.00 0.00 0.00 29 1014.1
20260503220036 83 70 5.0 12.0 0.00 0.00 0.00 29 1014.4
20260503214534 83 49 6.0 15.0 0.00 0.00 0.00 29 1014.5
20260503213107 82 59 5.0 14.0 0.00 0.00 0.00 28 1014.6
20260503211535 82 61 5.0 11.0 0.00 0.00 0.00 28 1014.9
20260503210111 82 41 6.0 13.0 0.00 0.00 0.00 28 1015.1
20260503204535 82 55 6.0 12.0 0.00 0.00 0.00 29 1015.2
20260503203033 81 65 6.0 14.0 0.00 0.00 0.00 29 1015.4
20260503201531 81 71 7.0 19.0 0.00 0.00 0.00 29 1015.5
20260503193037 80 92 7.0 16.0 0.00 0.00 0.00 30 1015.9
20260503191536 80 68 8.0 15.0 0.00 0.00 0.00 31 1016.0
20260503183030 77 333 4.0 7.0 0.00 0.00 0.00 41 1016.4
20260503181535 77 341 4.0 7.0 0.00 0.00 0.00 43 1016.5
20260503180036 76 344 2.0 6.0 0.00 0.00 0.00 43 1016.6
20260503174653 75 357 3.0 7.0 0.00 0.00 0.00 43 1016.7
20260503173033 76 3 3.0 5.0 0.00 0.00 0.00 42 1016.9
20260503170152 76 352 1.0 4.0 0.00 0.00 0.00 43 1017.0